Location: Guadanolo
(41.9167°N, 12.9333°E)
Time: 11:33:42
(UTC+00:00)

Cosmos 1610 Rocket - Pass Details

Date: 16 September 2019
Orbit: 954 x 1002 km, 82.9° (Epoch: 15 October)

Event Time Altitude Azimuth Distance (km) Brightness Sun altitude
Rises 18:32:37 0° 352° (N) 3,686 7.9 -14.7°
Reaches altitude 10° 18:35:08 10° 353° (N) 2,741 7.2 -15.1°
Maximum altitude 18:41:27 85° 82° (E) 998 4.5 -16.2°
Drops below altitude 10° 18:47:47 10° 172° (S) 2,754 6.6 -17.4°
Sets 18:50:19 0° 173° (S) 3,703 7.3 -17.8°
